| time (UTC) | temp F | wind direction | speed MPH | gust MPH | rain 1hr in | rain 24hr in | rain mn in | humidity % | barometer mb |
| 20260503180708 | 56 | 278 | 3.0 | 13.0 | 0.00 | 0.00 | 0.00 | 38 | 1012.2 |
| 20260503175651 | 56 | 290 | 3.0 | 12.0 | 0.00 | 0.00 | 0.00 | 39 | 1012.2 |
| 20260503174635 | 56 | 294 | 3.0 | 12.0 | 0.00 | 0.00 | 0.00 | 40 | 1012.3 |
| 20260503173831 | 55 | 294 | 3.0 | 12.0 | 0.00 | 0.00 | 0.00 | 40 | 1012.4 |
| 20260503172748 | 54 | 292 | 3.0 | 12.0 | 0.00 | 0.00 | 0.00 | 41 | 1012.5 |
| 20260503171519 | 54 | 292 | 2.0 | 12.0 | 0.00 | 0.00 | 0.00 | 41 | 1012.5 |
| 20260503170501 | 54 | 290 | 3.0 | 12.0 | 0.00 | 0.00 | 0.00 | 41 | 1012.5 |
| 20260503150248 | 52 | 334 | 2.0 | 8.0 | 0.00 | 0.00 | 0.00 | 46 | 1013.1 |
| 20260503130727 | 48 | 330 | 3.0 | 11.0 | 0.00 | 0.00 | 0.00 | 55 | 1013.0 |
| 20260503110352 | 45 | 330 | 1.0 | 0.0 | 0.00 | 0.00 | 0.00 | 61 | 1012.3 |
| 20260503100207 | 45 | 330 | 1.0 | 0.0 | 0.00 | 0.00 | 0.00 | 61 | 1011.3 |
| 20260503080850 | 45 | 330 | 1.0 | 0.0 | 0.00 | 0.00 | 0.00 | 61 | 1010.8 |
| 20260503072716 | 46 | 330 | 1.0 | 0.0 | 0.00 | 0.00 | 0.00 | 60 | 1010.7 |
| 20260503071659 | 46 | 330 | 0.0 | 0.0 | 0.00 | 0.00 | 0.00 | 60 | 1010.7 |
| 20260503070643 | 46 | 330 | 0.0 | 0.0 | 0.00 | 0.00 | 0.00 | 60 | 1010.8 |
| 20260503054423 | 48 | 318 | 1.0 | 0.0 | 0.00 | 0.00 | 0.00 | 56 | 1011.1 |
| 20260503053406 | 48 | 320 | 0.0 | 0.0 | 0.00 | 0.00 | 0.00 | 56 | 1011.1 |
| 20260503052323 | 48 | 320 | 0.0 | 0.0 | 0.00 | 0.00 | 0.00 | 56 | 1011.2 |
| 20260503051304 | 48 | 322 | 0.0 | 0.0 | 0.00 | 0.00 | 0.00 | 56 | 1011.2 |
| 20260503050247 | 48 | 320 | 0.0 | 0.0 | 0.00 | 0.00 | 0.00 | 56 | 1011.2 |
| 20260503045230 | 48 | 320 | 1.0 | 0.0 | 0.00 | 0.00 | 0.00 | 56 | 1011.4 |
| 20260503044211 | 48 | 318 | 1.0 | 0.0 | 0.00 | 0.00 | 0.00 | 56 | 1011.5 |
| 20260503043154 | 48 | 320 | 1.0 | 0.0 | 0.00 | 0.00 | 0.00 | 56 | 1011.5 |
| 20260503042137 | 48 | 320 | 0.0 | 0.0 | 0.00 | 0.00 | 0.00 | 56 | 1011.5 |
| 20260503041117 | 48 | 320 | 0.0 | 0.0 | 0.00 | 0.00 | 0.00 | 55 | 1011.6 |
| 20260503040312 | 48 | 67 | 1.0 | 3.0 | 0.00 | 0.00 | 0.00 | 55 | 1011.6 |
| 20260503035042 | 48 | 314 | 0.0 | 0.0 | 0.00 | 0.00 | 0.00 | 55 | 1011.5 |
| 20260503034025 | 48 | 314 | 0.0 | 0.0 | 0.00 | 0.00 | 0.00 | 56 | 1011.5 |
| 20260503033008 | 48 | 312 | 0.0 | 0.0 | 0.00 | 0.00 | 0.00 | 56 | 1011.5 |
| 20260503032206 | 49 | 312 | 0.0 | 0.0 | 0.00 | 0.00 | 0.00 | 56 | 1011.5 |
| 20260503030935 | 49 | 310 | 1.0 | 0.0 | 0.00 | 0.00 | 0.00 | 55 | 1011.5 |
| 20260503025916 | 49 | 318 | 0.0 | 0.0 | 0.00 | 0.00 | 0.00 | 55 | 1011.5 |
| 20260503024834 | 50 | 320 | 0.0 | 0.0 | 0.00 | 0.00 | 0.00 | 54 | 1011.6 |
| 20260503024008 | 50 | 320 | 0.0 | 0.0 | 0.00 | 0.00 | 0.00 | 54 | 1011.6 |
| 20260503022735 | 50 | 320 | 0.0 | 0.0 | 0.00 | 0.00 | 0.00 | 54 | 1011.6 |
| 20260503021717 | 50 | 318 | 0.0 | 0.0 | 0.00 | 0.00 | 0.00 | 54 | 1011.6 |
| 20260503020916 | 51 | 322 | 0.0 | 0.0 | 0.00 | 0.00 | 0.00 | 53 | 1011.5 |
| 20260503015858 | 51 | 306 | 0.0 | 0.0 | 0.00 | 0.00 | 0.00 | 52 | 1011.5 |
| 20260503014627 | 51 | 304 | 0.0 | 0.0 | 0.00 | 0.00 | 0.00 | 52 | 1011.6 |
| 20260503013604 | 51 | 304 | 0.0 | 0.0 | 0.00 | 0.00 | 0.00 | 52 | 1011.4 |
| 20260503012548 | 51 | 302 | 0.0 | 0.0 | 0.00 | 0.00 | 0.00 | 51 | 1011.5 |
| 20260503011744 | 51 | 300 | 0.0 | 0.0 | 0.00 | 0.00 | 0.00 | 51 | 1011.5 |
| 20260503010514 | 52 | 300 | 0.0 | 0.0 | 0.00 | 0.00 | 0.00 | 50 | 1011.3 |
| 20260503005457 | 52 | 60 | 0.0 | 0.0 | 0.00 | 0.00 | 0.00 | 50 | 1011.1 |
| 20260503004440 | 52 | 60 | 0.0 | 0.0 | 0.00 | 0.00 | 0.00 | 50 | 1011.0 |
| 20260503003424 | 52 | 62 | 0.0 | 0.0 | 0.00 | 0.00 | 0.00 | 49 | 1010.9 |
| 20260503002407 | 53 | 62 | 0.0 | 0.0 | 0.00 | 0.00 | 0.00 | 48 | 1010.8 |
| 20260503001605 | 53 | 0 | 0.0 | 0.0 | 0.00 | 0.00 | 0.00 | 47 | 1010.8 |
| 20260503000333 | 54 | 64 | 0.0 | 0.0 | 0.00 | 0.00 | 0.00 | 46 | 1010.8 |
| 20260502235316 | 54 | 344 | 0.0 | 0.0 | 0.00 | 0.00 | 0.00 | 45 | 1010.7 |
| 20260502234258 | 55 | 346 | 0.0 | 0.0 | 0.00 | 0.00 | 0.00 | 44 | 1010.6 |
| 20260502233241 | 56 | 342 | 0.0 | 0.0 | 0.00 | 0.00 | 0.00 | 44 | 1010.6 |
| 20260502232441 | 56 | 344 | 0.0 | 0.0 | 0.00 | 0.00 | 0.00 | 43 | 1010.7 |
| 20260502231207 | 57 | 350 | 1.0 | 0.0 | 0.00 | 0.00 | 0.00 | 42 | 1010.6 |
| 20260502230148 | 57 | 348 | 1.0 | 0.0 | 0.00 | 0.00 | 0.00 | 42 | 1010.6 |
| 20260502225130 | 58 | 356 | 1.0 | 0.0 | 0.00 | 0.00 | 0.00 | 40 | 1010.5 |
| 20260502224043 | 59 | 356 | 1.0 | 0.0 | 0.00 | 0.00 | 0.00 | 39 | 1010.4 |
| 20260502223027 | 59 | 356 | 1.0 | 0.0 | 0.00 | 0.00 | 0.00 | 39 | 1010.3 |
| 20260502222010 | 59 | 354 | 1.0 | 0.0 | 0.00 | 0.00 | 0.00 | 38 | 1010.3 |
| 20260502220948 | 60 | 318 | 1.0 | 0.0 | 0.00 | 0.00 | 0.00 | 38 | 1010.4 |
| 20260502215932 | 60 | 308 | 1.0 | 0.0 | 0.00 | 0.00 | 0.00 | 39 | 1010.4 |
| 20260502214915 | 60 | 308 | 1.0 | 0.0 | 0.00 | 0.00 | 0.00 | 38 | 1010.4 |
| 20260502213859 | 60 | 302 | 1.0 | 0.0 | 0.00 | 0.00 | 0.00 | 39 | 1010.4 |
| 20260502212842 | 60 | 312 | 1.0 | 0.0 | 0.00 | 0.00 | 0.00 | 39 | 1010.2 |
| 20260502211825 | 60 | 306 | 1.0 | 0.0 | 0.00 | 0.00 | 0.00 | 38 | 1010.1 |
| 20260502210807 | 60 | 300 | 1.0 | 0.0 | 0.00 | 0.00 | 0.00 | 39 | 1010.1 |
| 20260502205937 | 60 | 270 | 1.0 | 0.0 | 0.00 | 0.00 | 0.00 | 39 | 1010.0 |
| 20260502204703 | 60 | 280 | 1.0 | 0.0 | 0.00 | 0.00 | 0.00 | 39 | 1010.0 |
| 20260502203643 | 60 | 288 | 1.0 | 0.0 | 0.00 | 0.00 | 0.00 | 40 | 1010.2 |
| 20260502202623 | 60 | 280 | 1.0 | 0.0 | 0.00 | 0.00 | 0.00 | 40 | 1010.3 |
| 20260502201607 | 61 | 278 | 1.0 | 0.0 | 0.00 | 0.00 | 0.00 | 40 | 1010.3 |
| 20260502200550 | 62 | 280 | 2.0 | 0.0 | 0.00 | 0.00 | 0.00 | 39 | 1010.4 |
| 20260502195746 | 63 | 354 | 1.0 | 0.0 | 0.00 | 0.00 | 0.00 | 39 | 1010.6 |
| 20260502194732 | 62 | 346 | 1.0 | 0.0 | 0.00 | 0.00 | 0.00 | 39 | 1010.7 |
| 20260502193459 | 62 | 352 | 1.0 | 0.0 | 0.00 | 0.00 | 0.00 | 39 | 1010.9 |
| 20260502192442 | 62 | 346 | 1.0 | 0.0 | 0.00 | 0.00 | 0.00 | 39 | 1011.1 |
| 20260502191426 | 61 | 1.0 | 7.0 | 0.00 | 0.00 | 0.00 | 41 | 1011.3 | |
| 20260502190406 | 61 | 288 | 1.0 | 0.0 | 0.00 | 0.00 | 0.00 | 41 | 1011.3 |
| 20260502185349 | 61 | 256 | 2.0 | 0.0 | 0.00 | 0.00 | 0.00 | 41 | 1011.5 |
| 20260502184330 | 61 | 256 | 1.0 | 0.0 | 0.00 | 0.00 | 0.00 | 43 | 1011.6 |
| 20260502183314 | 61 | 320 | 1.0 | 0.0 | 0.00 | 0.00 | 0.00 | 43 | 1011.6 |
| 20260502182257 | 60 | 320 | 1.0 | 0.0 | 0.00 | 0.00 | 0.00 | 44 | 1011.6 |
| 20260502181234 | 60 | 324 | 1.0 | 0.0 | 0.00 | 0.00 | 0.00 | 44 | 1011.7 |